Location: Table Mountain
(47.2500°N, 120.5778°W)
Time: 18:13:40
(UTC-07:00)

ISS - Pass Details

Date: 14 October 2017
Orbit: 401 x 408 km, 51.6° (Epoch: 22 October)

Event Time Altitude Azimuth Distance (km) Brightness Sun altitude
Rises 19:30:59 0° 289° (WNW) 2,320 1.6 -13.5°
Reaches altitude 10° 19:33:19 10° 274° (W) 1,459 0.5 -13.9°
Maximum altitude 19:35:59 23° 220° (SW) 911 -1.6 -14.4°
Drops below altitude 10° 19:38:37 10° 166° (SSE) 1,454 -1.2 -14.8°
Enters shadow 19:39:09 - 161° (SSE) 1,639 -1.0 -14.9°
